This is the latest recevied weather packets stored in our database for station/object WX2NJ-13. If no packets are shown the sender has not sent any weather packets the latest 1 day(s).
| Time | Temp. | Humidity | Pressure | Rain* | Wind** | Luminosity | Snow |
|---|---|---|---|---|---|---|---|
| 1778050436 | 16.11° C | 79% | 1012.1 hPa | 0 mm | 0.45 m/s, 142° | - | - |
| 1778049839 | 16.67° C | 79% | 1012 hPa | 0 mm | 1.34 m/s, 174° | - | - |
| 1778049239 | 16.67° C | 78% | 1012.1 hPa | 0 mm | 1.34 m/s, 181° | - | - |
| 1778048639 | 16.67° C | 78% | 1012 hPa | 0 mm | 0.89 m/s, 150° | - | - |
| 1778048042 | 16.67° C | 78% | 1012 hPa | 0 mm | 1.34 m/s, 138° | - | - |
| 1778047442 | 16.67° C | 78% | 1012 hPa | 0 mm | 1.79 m/s, 187° | - | - |
| 1778046842 | 16.67° C | 78% | 1012.2 hPa | 0 mm | 0.89 m/s, 201° | - | - |
| 1778046245 | 16.67° C | 77% | 1012.2 hPa | 0 mm | 0.89 m/s, 221° | - | - |
| 1778045645 | 16.67° C | 77% | 1012.2 hPa | 0 mm | 1.34 m/s, 200° | - | - |
| 1778045346 | 16.67° C | 77% | 1012.3 hPa | 0 mm | 1.34 m/s, 101° | - | - |
| 1778045045 | 16.67° C | 76% | 1012.4 hPa | 0 mm | 0.89 m/s, 195° | - | - |
| 1778044746 | 16.67° C | 76% | 1012.4 hPa | 0 mm | 1.34 m/s, 186° | - | - |
| 1778044146 | 16.67° C | 76% | 1012.5 hPa | 0 mm | 0.89 m/s, 195° | - | - |
| 1778043847 | 16.67° C | 76% | 1012.6 hPa | 0 mm | 1.34 m/s, 167° | - | - |
| 1778043549 | 16.67° C | 75% | 1012.6 hPa | 0 mm | 0.45 m/s, 162° | - | - |
| 1778042949 | 16.67° C | 75% | 1012.6 hPa | 0 mm | 1.34 m/s, 183° | - | - |
| 1778042650 | 16.67° C | 75% | 1012.6 hPa | 0 mm | 1.34 m/s, 129° | - | - |
| 1778042349 | 17.22° C | 74% | 1012.5 hPa | 0 mm | 1.34 m/s, 187° | - | - |
| 1778042050 | 17.22° C | 74% | 1012.5 hPa | 0 mm | 0.89 m/s, 177° | - | - |
| 1778041752 | 17.22° C | 73% | 1012.5 hPa | 0 mm | 0 m/s | - | - |
| 1778041450 | 17.22° C | 73% | 1012.5 hPa | 0 mm | 1.79 m/s, 212° | - | - |
| 1778041152 | 17.22° C | 73% | 1012.5 hPa | 0 mm | 1.34 m/s, 190° | - | - |
| 1778040853 | 17.22° C | 72% | 1012.5 hPa | 0 mm | 0.89 m/s, 183° | - | - |
| 1778040253 | 17.78° C | 71% | 1012.6 hPa | 0 mm | 1.79 m/s, 179° | - | - |
| 1778039653 | 17.78° C | 71% | 1012.5 hPa | 0 mm | 1.79 m/s, 174° | - | - |
* Rain latest hour (hover to see other rain measurements)
** Current wind speed in m/s (hover to see current wind gust speed)